Location: Abraham Lincoln Continuation High School
(33.9711°N, 117.3662°W)
Time: 03:42:20
(UTC+00:00)

Cosmos 1605 Rocket - Pass Details

Date: 21 September 2020
Orbit: 946 x 1005 km, 82.9° (Epoch: 25 October)

Event Time Altitude Azimuth Distance (km) Brightness Sun altitude
Rises 11:16:09 0° 356° (N) 3,733 7.3 -29.3°
Reaches altitude 10° 11:18:43 10° 359° (N) 2,782 6.6 -28.8°
Maximum altitude 11:25:06 71° 83° (E) 1,060 4.2 -27.6°
Drops below altitude 10° 11:31:26 10° 167° (SSE) 2,762 6.3 -26.4°
Sets 11:33:58 0° 169° (S) 3,703 6.9 -25.9°
